This is the latest recevied weather packets stored in our database for station/object EA3FL-15. If no packets are shown the sender has not sent any weather packets the latest 10 day(s).
| Time | Temp. | Humidity | Pressure | Rain* | Wind** | Luminosity | Snow |
|---|---|---|---|---|---|---|---|
| 1777061078 | 15° C | 100% | 1021.5 hPa | - | - | - | - |
| 1777060178 | 15.56° C | 100% | 1021.6 hPa | - | - | - | - |
| 1777059278 | 16.11° C | 100% | 1021.4 hPa | - | - | - | - |
| 1777058378 | 16.67° C | 100% | 1021.1 hPa | - | - | - | - |
| 1777057479 | 16.67° C | 100% | 1021 hPa | - | - | - | - |
| 1777056578 | 17.22° C | 100% | 1020.9 hPa | - | - | - | - |
| 1777055678 | 17.78° C | 100% | 1020.9 hPa | - | - | - | - |
| 1777054778 | 17.78° C | 100% | 1021 hPa | - | - | - | - |
| 1777053878 | 17.78° C | 100% | 1021 hPa | - | - | - | - |
| 1777052978 | 19.44° C | 100% | 1020.9 hPa | - | - | - | - |
| 1777052078 | 20.56° C | 97% | 1021 hPa | - | - | - | - |
| 1777051178 | 21.11° C | 98% | 1020.9 hPa | - | - | - | - |
| 1777050278 | 22.22° C | 83% | 1021.1 hPa | - | - | - | - |
| 1777049378 | 21.67° C | 82% | 1021.1 hPa | - | - | - | - |
| 1777048478 | 21.67° C | 71% | 1021.3 hPa | - | - | - | - |
| 1777047578 | 22.22° C | 74% | 1021.4 hPa | - | - | - | - |
| 1777046678 | 20.56° C | 90% | 1021.3 hPa | - | - | - | - |
| 1777045778 | 21.11° C | 72% | 1021.6 hPa | - | - | - | - |
| 1777044878 | 20.56° C | 100% | 1021.6 hPa | - | - | - | - |
| 1777043978 | 21.11° C | 100% | 1021.7 hPa | - | - | - | - |
| 1777043079 | 20° C | 100% | 1021.7 hPa | - | - | - | - |
| 1777042193 | 19.44° C | 100% | 1021.8 hPa | - | - | - | - |
| 1777041293 | 19.44° C | 100% | 1021.9 hPa | - | - | - | - |
| 1777040393 | 19.44° C | 100% | 1022.1 hPa | - | - | - | - |
| 1777039493 | 19.44° C | 100% | 1022.2 hPa | - | - | - | - |
* Rain since midnight (hover to see other rain measurements)
** Current wind speed in m/s (hover to see current wind gust speed)